sat.trackr.live / text

‹ back to catalog

STARLINK-5845

NORAD 57050 · 2023-088C

PAYLOAD ACTIVE UNKNOWN

§ Identity

Operator
Country
US
Launch date
2023-06-22
Launch site
AFWTR
Launch vehicle
Mass (kg)
RCS (m²)

Purposes: comms

External: N2YO · Heavens-Above · Gunter

§ Orbital elements

Epoch: 2026-05-25T03:01:35.835744Z

Period
94.27 min
Inclination
43.0030°
Eccentricity
0.0000903
Mean motion
15.27578683 rev/d
Perigee alt
482.4 km
Apogee alt
483.7 km
Semi-major
6,861.2 km
B*
-8.8769e-6
RAAN
38.8770°
Arg perigee
227.8597°
Mean anomaly
132.2178°
Rev number
16,202

§ Raw data

STARLINK-58451 57050U 23088C   26145.12610921 -.00000506  00000+0 -88769-5 0  99932 57050  43.0030  38.8770 0000903 227.8597 132.2178 15.27578683162021

JSON: /api/v1/satellites/57050 · /tle

For live sub-satellite position, see the globe view (requires WebGL).

§ Visibility from observer

Set your observer location to see the next 7 days of passes ≥ 10°. The values pass through the URL so the page stays shareable.

No JS? Fill the form by hand. The geolocation button needs JavaScript.